SCP
-0 -0 -0 -0 -0 -0 -0 -0 -0 -0 -0 -0 -0 -0 -0 -0 -0 -0 -0 -0 -0 -0 -0 -0 -0 -0 -0
-0 -0 -0 -0 -0 -0 -0 -0 -0 -0 -0 -0 -0 -0 -0 -0 -0 -0 -0 -0 -0 -0 -0 -0 -0 -0 -0
-0 -0 -0 -0 -0 -0 -0 -0 -0 0 0 -0 -0 -0 -0 -0 -0 -0 -0 -0 -0 -0 -0 -0 -0 0 0
0 0 0 -0 0 -0 -0 -0 0 0 0 0 0 -0 -0 -0 -0 -0 -0 -0 0 0 0 0 0 0 0
0 0 0 0 0 0 0 0 0 0 0 0 0 0 0 0 0 0 0 0 0 0 0 0 0 0 0
0 0 0 0 0 0 0 0 0 0 0 0 0 0 0 0 0 0 0 0 0 0 0 0 0 0 0
0 0 0 0 0 0 0 0 0 0 0 0 0 0 0 0 0 0 0 0 0 0 0 0 0 0 0
0 0 0 0 0 0 0 0 0 0 0 0 0 0 0 0 0 0 0 0 0 0 0 0 0 0 0
0 0 0 0 0 0 0 0 0 0 0 0 0 0 0 0 0 0 0 0 0 0 0 0 0 0 0
0 0 0 0 0 0 0 0 0 0 0 0 0 0 0 0 0 0 0 0 0 0 0 0 0 0 0
0 0 0 0 0 0 0 0 0 0 0 0 0 0 0 0 0 0 0 0 0 0 0 0 0 0 0
0 0 0 0 0 0 0 0 0 0 0 0 0 0 0 0 0 0 0 0 0 0 0 0 0 0 0
0 0 0 0 0 0 0 0 0 0 0 0 0 0 0 0 0 0 0 0 0 0 0 0 0 0 0
0 0 0 0 0 0 0 0 0 0 0 0 0 0 0 0 0 0 0 0 0 0 0 0 0 0 0
0 0 0 0 0 0 0 0 0 0 0 0 0 0 0 0 0 0 0 0 0 0 0 0 0 0 0
0 0 0 0 0 0 0 0 0 0 0 0 0 0 0 0 0 0 0 0 0 0 0 0 0 0 0
Wind_Speed_500mb
25 22 18 15 14 14 13 13 12 13 17 22 27 29 29 29 28 26 24 24 25 26 27 27 26 26 27
25 23 20 18 18 15 14 13 9 9 12 17 19 24 28 30 29 28 27 28 28 28 27 27 26 27 31
25 22 22 22 20 18 17 15 12 10 11 13 13 14 17 21 25 26 25 26 27 28 28 27 25 29 27
36 33 28 25 24 22 20 20 17 13 13 14 7 4 6 11 15 17 19 19 20 23 25 23 25 24 23
41 35 34 33 30 25 23 23 21 19 16 18 14 4 1 4 7 9 10 11 13 16 18 21 24 23 25
43 44 37 34 32 30 31 25 22 22 21 20 21 14 4 5 7 6 6 7 8 10 12 14 17 19 22
49 48 46 41 39 35 33 30 31 25 27 29 25 23 9 12 10 8 10 7 7 8 13 13 16 18 19
53 53 52 49 44 46 43 41 40 34 27 29 27 30 16 14 16 12 13 13 12 11 16 16 16 17 18
54 55 57 56 50 52 51 48 48 43 35 39 30 29 19 19 20 17 19 17 15 19 20 20 18 17 17
53 54 59 53 55 53 51 51 48 48 44 46 38 33 29 26 26 24 23 25 25 25 24 22 19 19 18
52 52 55 56 54 56 53 49 48 47 47 48 46 39 32 33 31 29 30 27 32 33 30 27 23 18 14
53 53 55 59 55 55 52 52 52 51 47 47 48 46 36 39 37 36 35 38 35 36 36 31 24 15 11
60 59 60 65 58 57 52 53 52 51 50 59 51 47 47 40 39 41 43 44 49 42 37 33 24 15 8
62 60 61 61 60 55 55 54 58 64 61 50 45 48 46 46 48 48 51 56 51 47 35 24 22 13 10
68 63 63 61 61 64 67 64 67 58 62 54 52 51 48 49 50 50 53 50 49 48 37 18 15 14 24
72 69 70 71 74 73 67 64 62 62 58 55 52 54 50 50 50 52 52 44 38 39 37 30 21 17 20
Wind_Direction_500mb
181 180 181 174 167 164 149 134 103 91 85 80 67 65 74 76 76 78 78 77 76 77 76 75 74 74 72
189 186 186 186 187 185 173 165 143 121 104 87 73 72 84 79 76 77 77 75 74 75 75 76 79 82 77
202 203 203 199 198 196 189 190 179 166 141 120 86 73 84 81 76 72 73 73 69 69 71 73 76 76 77
206 208 211 214 209 205 204 202 194 189 171 161 116 49 100 100 88 79 77 76 70 69 73 74 75 77 77
210 211 215 213 218 213 212 216 216 204 199 191 178 205 280 166 115 88 84 82 78 76 77 79 81 81 79
215 217 212 223 226 223 217 222 225 216 210 205 220 198 203 236 193 153 147 129 120 102 93 88 89 83 76
229 221 220 217 228 226 227 226 231 239 225 210 229 212 192 246 260 186 182 173 173 132 131 113 98 87 83
231 230 227 227 220 224 223 223 228 235 237 230 222 213 201 239 256 207 195 174 180 135 134 124 116 108 93
234 233 230 226 217 223 223 225 230 234 226 240 238 202 211 245 245 222 203 190 174 154 148 138 123 110 99
237 235 232 225 217 224 224 228 232 230 231 227 226 230 223 248 243 224 210 183 172 162 153 143 136 119 94
238 235 231 228 225 221 224 225 222 223 229 228 223 221 219 247 232 215 191 192 179 169 162 148 134 114 92
237 235 229 223 223 221 219 220 220 223 225 224 222 219 227 241 217 202 196 184 185 175 159 146 132 117 92
235 232 223 221 221 216 217 219 225 223 225 223 218 221 238 229 212 199 192 191 178 175 164 148 138 136 133
239 236 227 224 221 216 217 217 213 216 214 216 230 233 230 215 201 202 198 186 185 179 175 162 155 156 177
237 232 222 220 217 214 214 218 222 225 225 225 226 229 218 213 207 203 199 199 190 187 184 183 165 181 184
236 231 225 228 219 217 218 216 219 220 219 228 229 221 215 211 206 200 195 199 203 200 196 202 209 201 181
Wind_Speed_850mb
25 22 18 15 14 14 13 13 12 13 17 22 27 29 29 29 28 26 24 24 25 26 27 27 26 26 27
25 23 20 18 18 15 14 13 9 9 12 17 19 24 28 30 29 28 27 28 28 28 27 27 26 27 31
25 22 22 22 20 18 17 15 12 10 11 13 13 14 17 21 25 26 25 26 27 28 28 27 25 29 27
36 33 28 25 24 22 20 20 17 13 13 14 7 4 6 11 15 17 19 19 20 23 25 23 25 24 23
41 35 34 33 30 25 23 23 21 19 16 18 14 4 1 4 7 9 10 11 13 16 18 21 24 23 25
43 44 37 34 32 30 31 25 22 22 21 20 21 14 4 5 7 6 6 7 8 10 12 14 17 19 22
49 48 46 41 39 35 33 30 31 25 27 29 25 23 9 12 10 8 10 7 7 8 13 13 16 18 19
53 53 52 49 44 46 43 41 40 34 27 29 27 30 16 14 16 12 13 13 12 11 16 16 16 17 18
54 55 57 56 50 52 51 48 48 43 35 39 30 29 19 19 20 17 19 17 15 19 20 20 18 17 17
53 54 59 53 55 53 51 51 48 48 44 46 38 33 29 26 26 24 23 25 25 25 24 22 19 19 18
52 52 55 56 54 56 53 49 48 47 47 48 46 39 32 33 31 29 30 27 32 33 30 27 23 18 14
53 53 55 59 55 55 52 52 52 51 47 47 48 46 36 39 37 36 35 38 35 36 36 31 24 15 11
60 59 60 65 58 57 52 53 52 51 50 59 51 47 47 40 39 41 43 44 49 42 37 33 24 15 8
62 60 61 61 60 55 55 54 58 64 61 50 45 48 46 46 48 48 51 56 51 47 35 24 22 13 10
68 63 63 61 61 64 67 64 67 58 62 54 52 51 48 49 50 50 53 50 49 48 37 18 15 14 24
72 69 70 71 74 73 67 64 62 62 58 55 52 54 50 50 50 52 52 44 38 39 37 30 21 17 20
Wind_Direction_850mb
181 180 181 174 167 164 149 134 103 91 85 80 67 65 74 76 76 78 78 77 76 77 76 75 74 74 72
189 186 186 186 187 185 173 165 143 121 104 87 73 72 84 79 76 77 77 75 74 75 75 76 79 82 77
202 203 203 199 198 196 189 190 179 166 141 120 86 73 84 81 76 72 73 73 69 69 71 73 76 76 77
206 208 211 214 209 205 204 202 194 189 171 161 116 49 100 100 88 79 77 76 70 69 73 74 75 77 77
210 211 215 213 218 213 212 216 216 204 199 191 178 205 280 166 115 88 84 82 78 76 77 79 81 81 79
215 217 212 223 226 223 217 222 225 216 210 205 220 198 203 236 193 153 147 129 120 102 93 88 89 83 76
229 221 220 217 228 226 227 226 231 239 225 210 229 212 192 246 260 186 182 173 173 132 131 113 98 87 83
231 230 227 227 220 224 223 223 228 235 237 230 222 213 201 239 256 207 195 174 180 135 134 124 116 108 93
234 233 230 226 217 223 223 225 230 234 226 240 238 202 211 245 245 222 203 190 174 154 148 138 123 110 99
237 235 232 225 217 224 224 228 232 230 231 227 226 230 223 248 243 224 210 183 172 162 153 143 136 119 94
238 235 231 228 225 221 224 225 222 223 229 228 223 221 219 247 232 215 191 192 179 169 162 148 134 114 92
237 235 229 223 223 221 219 220 220 223 225 224 222 219 227 241 217 202 196 184 185 175 159 146 132 117 92
235 232 223 221 221 216 217 219 225 223 225 223 218 221 238 229 212 199 192 191 178 175 164 148 138 136 133
239 236 227 224 221 216 217 217 213 216 214 216 230 233 230 215 201 202 198 186 185 179 175 162 155 156 177
237 232 222 220 217 214 214 218 222 225 225 225 226 229 218 213 207 203 199 199 190 187 184 183 165 181 184
236 231 225 228 219 217 218 216 219 220 219 228 229 221 215 211 206 200 195 199 203 200 196 202 209 201 181